CW9254 Weather Reports


time (UTC)temp
C
wind
direction
speed
KPH
gust
KPH
rain 1hr
cm
rain 24hr
cm
rain mn
cm
humidity
%
barometer
mb
20260510192503 6 345 1.6 4.8 0.00 0.00 0.00 92 1031.1
20260510192004 6 345 0.0 4.8 0.00 0.00 0.00 93 1031.1
20260510191505 6 346 1.6 4.8 0.00 0.00 0.00 93 1031.0
20260510191004 6 345 0.0 4.8 0.00 0.00 0.00 93 1031.1
20260510190503 6 359 1.6 4.8 0.00 0.00 0.00 93 1031.0
20260510190019 6 344 1.6 4.8 0.00 0.00 0.00 92 1031.0
20260510185504 6 359 1.6 4.8 0.00 0.00 0.00 93 1030.9
20260510185004 6 345 1.6 3.2 0.00 0.00 0.00 92 1030.9
20260510184504 6 347 1.6 3.2 0.00 0.00 0.00 92 1030.9
20260510184004 6 346 1.6 3.2 0.00 0.00 0.00 92 1030.7
20260510183504 6 345 0.0 3.2 0.00 0.00 0.00 92 1030.8
20260510183004 6 345 1.6 3.2 0.00 0.00 0.00 92 1030.8
20260510182503 6 359 1.6 3.2 0.00 0.00 0.00 92 1030.8
20260510182003 6 345 1.6 3.2 0.00 0.00 0.00 92 1030.8
20260510181516 6 359 1.6 3.2 0.00 0.00 0.00 92 1030.7
20260510181004 6 341 1.6 3.2 0.00 0.00 0.00 92 1030.7
20260510180503 6 340 0.0 3.2 0.00 0.00 0.00 92 1030.6
20260510180007 6 340 1.6 3.2 0.00 0.00 0.00 92 1030.6
20260510175503 6 339 0.0 4.8 0.00 0.03 0.00 92 1030.6
20260510175003 6 359 0.0 4.8 0.00 0.03 0.00 92 1030.5
20260510174503 7 339 0.0 4.8 0.00 0.03 0.00 92 1030.6
20260510174002 7 339 0.0 3.2 0.00 0.03 0.00 92 1030.5
20260510173503 7 339 1.6 3.2 0.00 0.03 0.00 92 1030.6
20260510173002 7 339 0.0 3.2 0.00 0.03 0.00 91 1030.6
20260510172503 7 338 1.6 3.2 0.00 0.03 0.00 91 1030.6
20260510172005 7 359 0.0 3.2 0.00 0.03 0.00 91 1030.6
20260510171506 7 337 0.0 3.2 0.00 0.03 0.00 91 1030.5
20260510171003 7 337 0.0 3.2 0.00 0.03 0.00 91 1030.6
20260510170503 7 337 0.0 3.2 0.00 0.03 0.00 91 1030.7
20260510170005 7 337 0.0 3.2 0.00 0.03 0.00 91 1030.5
20260510165503 7 337 0.0 3.2 0.00 0.03 0.00 91 1030.6
20260510165003 7 337 0.0 3.2 0.00 0.03 0.00 91 1030.6
20260510164511 7 337 0.0 3.2 0.00 0.03 0.00 91 1030.6
20260510164002 7 336 0.0 4.8 0.00 0.03 0.00 91 1030.6
20260510163502 7 336 1.6 4.8 0.00 0.03 0.00 91 1030.6
20260510163003 7 336 0.0 4.8 0.00 0.03 0.00 91 1030.7
20260510162504 7 335 0.0 3.2 0.00 0.03 0.00 91 1030.7
20260510162002 7 335 1.6 3.2 0.00 0.03 0.00 91 1030.7
20260510161502 7 333 1.6 3.2 0.00 0.03 0.00 91 1030.6
20260510161003 7 328 1.6 3.2 0.00 0.03 0.00 91 1030.7
20260510160503 7 325 1.6 4.8 0.00 0.03 0.00 91 1030.7
20260510160005 7 322 1.6 4.8 0.00 0.03 0.00 91 1030.7
20260510155502 7 324 1.6 3.2 0.00 0.03 0.00 91 1030.8
20260510155004 7 319 0.0 3.2 0.00 0.03 0.00 91 1030.8
20260510154503 7 318 1.6 3.2 0.00 0.03 0.00 91 1030.7
20260510154003 7 318 0.0 3.2 0.00 0.03 0.00 91 1030.9
20260510153502 8 317 1.6 3.2 0.00 0.03 0.00 91 1030.8
20260510153006 8 316 1.6 4.8 0.00 0.03 0.00 91 1030.8
20260510152504 8 313 1.6 4.8 0.00 0.03 0.00 91 1031.0
20260510152002 8 297 1.6 3.2 0.00 0.03 0.00 91 1030.9
20260510151504 8 278 0.0 3.2 0.00 0.03 0.00 91 1030.9
20260510151005 8 275 1.6 3.2 0.00 0.03 0.00 91 1030.9
20260510150503 8 270 0.0 3.2 0.00 0.03 0.00 91 1030.9
20260510150005 8 258 0.0 3.2 0.00 0.03 0.00 91 1031.0
20260510145506 8 251 0.0 3.2 0.00 0.03 0.00 91 1031.0
20260510145004 8 249 0.0 3.2 0.00 0.03 0.00 91 1031.1
20260510144506 8 249 0.0 3.2 0.00 0.03 0.00 91 1031.0
20260510144003 8 359 0.0 3.2 0.00 0.03 0.00 90 1031.0
20260510143502 8 195 0.0 3.2 0.00 0.03 0.00 90 1031.0
20260510143005 8 194 0.0 3.2 0.00 0.03 0.00 90 1031.0
20260510142502 8 194 0.0 1.6 0.00 0.03 0.00 90 1031.0
20260510142003 8 194 0.0 1.6 0.00 0.03 0.00 90 1031.1
20260510141503 8 194 0.0 1.6 0.00 0.03 0.00 90 1031.0
20260510141006 8 194 0.0 3.2 0.00 0.03 0.00 90 1031.1
20260510140503 8 194 0.0 3.2 0.00 0.03 0.00 90 1031.0
20260510140009 8 194 0.0 3.2 0.00 0.03 0.00 90 1031.1
20260510135510 8 193 0.0 3.2 0.00 0.03 0.00 89 1031.0
20260510135006 8 193 0.0 1.6 0.00 0.03 0.00 89 1031.0
20260510134506 8 193 0.0 3.2 0.00 0.03 0.00 89 1031.0
20260510134006 8 193 0.0 3.2 0.00 0.03 0.00 89 1031.0
20260510133505 8 193 0.0 1.6 0.00 0.03 0.00 89 1031.0
20260510133009 8 193 0.0 3.2 0.00 0.03 0.00 89 1031.1
20260510132506 8 191 0.0 1.6 0.00 0.03 0.00 89 1031.1
20260510132006 8 192 0.0 3.2 0.00 0.03 0.00 89 1031.1
20260510131505 8 192 0.0 3.2 0.00 0.03 0.00 89 1031.1
20260510131005 8 191 0.0 1.6 0.00 0.03 0.00 89 1030.9
20260510130505 8 191 0.0 3.2 0.00 0.03 0.00 89 1030.9
20260510130011 8 191 0.0 3.2 0.00 0.03 0.00 89 1030.9
20260510125505 9 191 0.0 1.6 0.00 0.03 0.03 88 1031.0
20260510125005 9 191 0.0 1.6 0.00 0.03 0.03 88 1031.0
20260510124507 9 193 0.0 3.2 0.00 0.03 0.03 87 1031.2
20260510124007 9 188 0.0 3.2 0.00 0.03 0.03 87 1031.2
20260510123507 9 187 0.0 4.8 0.00 0.03 0.03 87 1031.1
20260510123005 9 187 0.0 4.8 0.00 0.03 0.03 87 1031.3
20260510122509 9 187 0.0 3.2 0.00 0.03 0.03 87 1031.2
20260510122006 10 187 0.0 1.6 0.00 0.03 0.03 86 1031.2
20260510121505 10 187 0.0 1.6 0.00 0.03 0.03 86 1031.1
20260510121006 10 186 0.0 3.2 0.00 0.03 0.03 86 1031.1
20260510120506 10 187 0.0 1.6 0.00 0.03 0.03 86 1031.1
20260510120007 10 187 0.0 1.6 0.00 0.03 0.03 85 1031.1
20260510115504 10 187 0.0 1.6 0.00 0.03 0.03 85 1031.1
20260510115004 10 188 0.0 1.6 0.00 0.03 0.03 85 1031.3
20260510114504 10 188 0.0 1.6 0.00 0.03 0.03 85 1031.3
20260510114004 10 187 0.0 3.2 0.00 0.03 0.03 85 1031.4
20260510113504 11 187 0.0 3.2 0.00 0.03 0.03 84 1031.2
20260510113005 11 187 0.0 0.0 0.00 0.03 0.03 84 1031.2
20260510112504 11 187 0.0 0.0 0.00 0.03 0.03 85 1031.2
20260510112005 11 187 0.0 1.6 0.00 0.03 0.03 85 1031.0
20260510111005 11 187 0.0 3.2 0.00 0.03 0.03 85 1030.9
20260510110508 11 188 0.0 3.2 0.00 0.03 0.03 85 1030.7
20260510110010 11 187 0.0 4.8 0.00 0.03 0.03 86 1030.7
20260510105505 11 187 0.0 4.8 0.00 0.03 0.03 86 1030.8
20260510105008 11 188 1.6 3.2 0.00 0.03 0.03 86 1030.7
20260510104505 11 187 0.0 0.0 0.00 0.03 0.03 86 1030.7
20260510104005 11 187 0.0 1.6 0.00 0.03 0.03 86 1030.7
20260510103505 11 187 0.0 1.6 0.00 0.03 0.03 86 1030.7
20260510103006 11 187 0.0 0.0 0.00 0.03 0.03 86 1030.7
20260510102505 11 187 0.0 1.6 0.00 0.03 0.03 86 1030.7
20260510102006 11 186 0.0 1.6 0.00 0.03 0.03 86 1030.7
20260510101505 11 187 0.0 1.6 0.00 0.03 0.03 86 1030.8
20260510101005 11 188 0.0 1.6 0.00 0.03 0.03 86 1030.7
20260510100507 11 187 0.0 1.6 0.00 0.03 0.03 86 1030.7
20260510100009 11 186 0.0 0.0 0.00 0.03 0.03 85 1030.7
20260510095505 11 188 0.0 0.0 0.00 0.03 0.03 85 1030.7
20260510095004 11 187 0.0 0.0 0.00 0.03 0.03 85 1030.7
20260510094509 11 186 0.0 1.6 0.00 0.03 0.03 85 1030.8
20260510094004 11 187 0.0 1.6 0.00 0.03 0.03 85 1030.6
20260510093504 11 187 0.0 0.0 0.00 0.03 0.03 84 1030.5
20260510093006 11 187 0.0 0.0 0.00 0.03 0.03 84 1030.5
20260510092504 11 187 0.0 0.0 0.00 0.03 0.03 84 1030.5
20260510092004 11 187 0.0 0.0 0.00 0.03 0.03 83 1030.5
20260510091509 11 187 0.0 0.0 0.00 0.03 0.03 83 1030.5
20260510091004 11 186 0.0 0.0 0.00 0.03 0.03 83 1030.4
20260510090504 11 187 0.0 0.0 0.00 0.03 0.03 82 1030.4
20260510090008 11 187 0.0 0.0 0.00 0.03 0.03 82 1030.3
20260510085504 11 187 0.0 0.0 0.00 0.03 0.03 82 1030.4
20260510085004 11 188 0.0 0.0 0.00 0.03 0.03 81 1030.4
20260510084504 11 188 0.0 0.0 0.00 0.03 0.03 81 1030.4
20260510084004 12 187 0.0 0.0 0.00 0.03 0.03 81 1030.2
20260510083505 12 186 0.0 0.0 0.00 0.03 0.03 80 1030.4
20260510083004 12 187 0.0 0.0 0.00 0.03 0.03 79 1030.4
20260510082507 12 187 0.0 0.0 0.00 0.03 0.03 79 1030.2
20260510082006 12 188 0.0 0.0 0.00 0.03 0.03 78 1030.1
20260510081507 12 187 0.0 0.0 0.00 0.03 0.03 78 1030.1
20260510081005 12 187 0.0 0.0 0.00 0.03 0.03 77 1030.0
20260510080505 12 187 0.0 0.0 0.00 0.03 0.03 77 1030.1
20260510080006 13 187 0.0 0.0 0.00 0.03 0.03 76 1030.0
20260510075504 13 187 0.0 0.0 0.00 0.03 0.03 75 1030.0
20260510075004 13 188 0.0 0.0 0.00 0.03 0.03 75 1030.0
20260510074504 13 187 0.0 0.0 0.00 0.03 0.03 74 1029.8
20260510074005 13 187 0.0 0.0 0.00 0.03 0.03 74 1029.8
20260510073504 14 187 0.0 0.0 0.00 0.03 0.03 73 1029.7
20260510073007 14 187 0.0 0.0 0.00 0.03 0.03 72 1029.8
20260510072504 14 189 0.0 0.0 0.00 0.03 0.03 72 1029.8
20260510072004 15 187 0.0 1.6 0.00 0.03 0.03 71 1029.8
20260510071504 15 188 0.0 1.6 0.00 0.03 0.03 71 1029.7
20260510071004 15 188 0.0 0.0 0.00 0.03 0.03 70 1029.6
20260510070504 15 188 0.0 3.2 0.00 0.03 0.03 70 1029.7
20260510070007 15 187 0.0 8.0 0.00 0.03 0.03 69 1029.6
20260510065504 15 187 1.6 9.7 0.00 0.03 0.03 69 1029.6
20260510065004 15 187 0.0 9.7 0.00 0.03 0.03 69 1029.5
20260510064504 15 187 1.6 8.0 0.00 0.03 0.03 68 1029.5
20260510064004 15 188 1.6 9.7 0.00 0.03 0.03 67 1029.6
20260510063504 16 187 3.2 14.5 0.00 0.03 0.03 68 1029.5
20260510063004 16 210 4.8 17.7 0.00 0.03 0.03 67 1029.4
20260510062506 16 205 6.4 17.7 0.00 0.03 0.03 67 1029.5
20260510062004 16 191 4.8 14.5 0.00 0.03 0.03 67 1029.4
20260510061504 16 195 3.2 11.3 0.00 0.03 0.03 67 1029.4
20260510061006 16 193 3.2 12.9 0.00 0.03 0.03 67 1029.4
20260510060506 16 191 3.2 14.5 0.00 0.03 0.03 67 1029.4
20260510060012 16 228 6.4 12.9 0.00 0.03 0.03 67 1029.4
20260510055504 16 197 3.2 9.7 0.00 0.03 0.03 66 1029.3
20260510055004 16 197 1.6 9.7 0.00 0.03 0.03 66 1029.3
20260510054504 16 197 1.6 8.0 0.00 0.03 0.03 66 1029.3
20260510054003 16 197 1.6 17.7 0.00 0.03 0.03 66 1029.2
20260510053507 16 199 3.2 17.7 0.00 0.03 0.03 66 1029.1
20260510053004 17 198 0.0 11.3 0.00 0.03 0.03 65 1029.1
20260510052504 17 198 3.2 11.3 0.00 0.03 0.03 65 1029.1
20260510052005 17 201 3.2 9.7 0.00 0.03 0.03 65 1029.0
20260510051504 17 206 3.2 14.5 0.00 0.03 0.03 65 1029.1
20260510051004 17 209 3.2 14.5 0.00 0.03 0.03 66 1029.1
20260510050508 16 229 3.2 11.3 0.00 0.03 0.03 65 1029.1
20260510050009 16 233 4.8 11.3 0.00 0.03 0.03 67 1029.1
20260510045504 16 235 3.2 11.3 0.00 0.03 0.03 66 1029.1
20260510045004 16 233 0.0 11.3 0.00 0.03 0.03 66 1029.1
20260510044507 17 232 3.2 11.3 0.00 0.03 0.03 67 1029.1
20260510044005 17 200 3.2 11.3 0.00 0.03 0.03 67 1029.1
20260510043504 17 199 3.2 11.3 0.00 0.03 0.03 67 1029.0
20260510043005 17 197 6.4 11.3 0.00 0.03 0.03 65 1028.9
20260510042506 17 231 1.6 11.3 0.00 0.03 0.03 65 1029.0
20260510042005 17 222 6.4 12.9 0.00 0.03 0.03 66 1029.0
20260510041504 17 201 3.2 12.9 0.00 0.03 0.03 66 1028.9
20260510041004 17 202 6.4 11.3 0.00 0.03 0.03 64 1029.1
20260510040504 17 205 0.0 11.3 0.00 0.03 0.03 64 1029.0
20260510040007 17 206 6.4 11.3 0.00 0.03 0.03 65 1029.2
20260510035504 17 206 3.2 11.3 0.00 0.03 0.03 65 1029.2
20260510035004 17 214 6.4 11.3 0.00 0.03 0.03 64 1029.2
20260510034504 17 204 1.6 11.3 0.00 0.03 0.03 65 1029.1
20260510034004 17 202 3.2 11.3 0.00 0.03 0.03 67 1029.1
20260510033504 17 201 3.2 9.7 0.00 0.03 0.03 67 1029.2
20260510033004 17 201 4.8 12.9 0.00 0.03 0.03 65 1029.3
20260510032504 17 200 6.4 12.9 0.00 0.03 0.03 65 1029.3
20260510032004 17 198 4.8 12.9 0.00 0.03 0.03 66 1029.2
20260510031509 17 206 1.6 11.3 0.00 0.03 0.03 66 1029.4
20260510031004 17 208 3.2 16.1 0.00 0.03 0.03 65 1029.3
20260510030507 17 207 6.4 16.1 0.00 0.03 0.03 64 1029.5
20260510030010 17 217 4.8 9.7 0.00 0.03 0.03 66 1029.5
20260510025505 17 209 3.2 12.9 0.00 0.03 0.03 67 1029.5
20260510025004 16 206 6.4 12.9 0.00 0.03 0.03 67 1029.6
20260510024504 16 211 3.2 12.9 0.00 0.03 0.03 68 1029.7
20260510024008 16 208 4.8 12.9 0.00 0.03 0.03 68 1029.8
20260510023504 16 207 4.8 11.3 0.00 0.03 0.03 67 1029.8
20260510023004 16 205 4.8 11.3 0.00 0.03 0.03 68 1029.9
20260510022504 16 206 3.2 9.7 0.00 0.03 0.03 68 1029.9
20260510022004 16 206 1.6 4.8 0.00 0.03 0.03 69 1029.9
20260510021504 16 206 0.0 6.4 0.00 0.03 0.03 71 1030.1
20260510021008 16 206 0.0 6.4 0.00 0.03 0.03 68 1030.1
20260510020504 16 209 1.6 8.0 0.00 0.03 0.03 68 1030.2
20260510020007 16 208 3.2 6.4 0.00 0.03 0.03 69 1030.4
20260510015504 16 206 1.6 14.5 0.00 0.03 0.03 69 1030.3
20260510015008 16 207 6.4 14.5 0.00 0.03 0.03 70 1030.4
20260510014506 16 205 3.2 11.3 0.00 0.03 0.03 70 1030.3
20260510014004 16 205 4.8 11.3 0.00 0.03 0.03 70 1030.4
20260510013504 16 203 1.6 6.4 0.00 0.03 0.03 71 1030.5
20260510013004 16 279 3.2 8.0 0.00 0.03 0.03 72 1030.6
20260510012504 16 279 0.0 8.0 0.00 0.03 0.03 71 1030.6
20260510012004 16 279 1.6 11.3 0.00 0.03 0.03 73 1030.7
20260510011504 16 280 3.2 11.3 0.00 0.03 0.03 73 1030.6
20260510011004 16 280 0.0 6.4 0.00 0.03 0.03 75 1030.7
20260510010504 15 281 0.0 6.4 0.00 0.03 0.03 75 1030.7
20260510010007 15 280 0.0 8.0 0.00 0.03 0.03 76 1030.7
20260510005504 15 280 1.6 9.7 0.00 0.03 0.03 78 1030.6
20260510005004 15 280 1.6 8.0 0.00 0.03 0.03 78 1030.7
20260510004504 15 279 4.8 8.0 0.00 0.03 0.03 79 1030.7
20260510004007 15 281 1.6 11.3 0.00 0.03 0.03 82 1030.7
20260510003504 15 280 4.8 11.3 0.00 0.03 0.03 82 1030.7
20260510003004 15 275 0.0 11.3 0.00 0.03 0.03 83 1030.7
20260510002504 15 275 3.2 11.3 0.00 0.03 0.03 86 1030.6
20260510002004 15 276 0.0 9.7 0.00 0.03 0.03 87 1030.6
20260510001504 15 276 1.6 6.4 0.00 0.03 0.03 88 1030.7
20260510001004 14 275 1.6 6.4 0.00 0.03 0.03 89 1030.7
20260510000503 14 277 1.6 6.4 0.00 0.03 0.03 90 1030.8
20260510000010 14 276 0.0 6.4 0.00 0.03 0.03 91 1030.8
20260509235504 13 276 1.6 11.3 0.00 0.03 0.03 92 1030.8
20260509235006 13 276 3.2 11.3 0.00 0.03 0.03 92 1030.7
20260509234504 13 274 0.0 11.3 0.00 0.03 0.03 93 1030.7
20260509234004 13 274 3.2 9.7 0.00 0.03 0.03 93 1030.6
20260509233503 13 274 3.2 9.7 0.00 0.03 0.03 94 1030.6
20260509233004 13 274 3.2 9.7 0.00 0.03 0.03 94 1030.6
20260509232504 13 274 0.0 4.8 0.00 0.03 0.03 94 1030.6
20260509232004 13 274 0.0 3.2 0.00 0.03 0.03 95 1030.6
20260509231504 13 272 0.0 3.2 0.00 0.03 0.03 95 1030.7
20260509231004 13 274 0.0 3.2 0.00 0.03 0.03 95 1030.6
20260509230504 13 274 0.0 3.2 0.00 0.03 0.03 95 1030.6
20260509230005 12 274 0.0 1.6 0.00 0.03 0.03 95 1030.5
20260509225504 12 274 0.0 3.2 0.00 0.03 0.03 95 1030.6
20260509225002 12 275 0.0 3.2 0.00 0.03 0.03 95 1030.5
20260509224503 12 274 0.0 1.6 0.00 0.03 0.03 95 1030.4
20260509224003 12 274 0.0 1.6 0.00 0.03 0.03 95 1030.4
20260509223503 12 274 0.0 3.2 0.00 0.03 0.03 95 1030.4
20260509223003 12 274 0.0 3.2 0.00 0.03 0.03 95 1030.3
20260509222502 12 274 0.0 1.6 0.00 0.03 0.03 95 1030.4
20260509222003 12 274 0.0 1.6 0.00 0.03 0.03 95 1030.3
20260509221503 12 273 0.0 1.6 0.00 0.03 0.03 95 1030.3
20260509221003 12 274 0.0 1.6 0.00 0.03 0.03 95 1030.2
20260509220502 12 274 0.0 1.6 0.00 0.03 0.03 95 1030.0
20260509220006 12 272 0.0 1.6 0.00 0.03 0.03 95 1030.0
20260509215503 12 274 0.0 3.2 0.00 0.05 0.03 95 1029.9
20260509215003 12 274 0.0 3.2 0.00 0.05 0.03 95 1029.7
20260509214505 12 274 0.0 3.2 0.00 0.05 0.03 95 1029.7
20260509214005 12 272 0.0 3.2 0.00 0.05 0.03 95 1029.6
20260509213503 12 274 0.0 3.2 0.00 0.05 0.03 95 1029.5
20260509213003 12 274 0.0 3.2 0.00 0.05 0.03 95 1029.5
20260509212503 12 274 0.0 3.2 0.00 0.05 0.03 95 1029.5
20260509212002 12 274 0.0 1.6 0.00 0.05 0.03 95 1029.4
20260509211508 12 274 0.0 1.6 0.00 0.05 0.03 95 1029.3
20260509211003 12 274 0.0 1.6 0.00 0.05 0.03 95 1029.3
20260509210503 12 273 0.0 1.6 0.00 0.05 0.03 95 1029.3
20260509210010 12 274 0.0 1.6 0.00 0.05 0.03 95 1029.3
20260509205502 12 274 0.0 0.0 0.00 0.05 0.03 95 1029.2
20260509205003 12 274 0.0 1.6 0.00 0.05 0.03 95 1029.2
20260509204503 12 272 0.0 1.6 0.00 0.05 0.03 95 1029.1
20260509204003 12 274 0.0 0.0 0.00 0.05 0.03 95 1029.0
20260509203503 12 274 0.0 1.6 0.00 0.05 0.03 95 1028.8
20260509203005 12 274 0.0 3.2 0.00 0.05 0.03 95 1029.0
20260509202503 12 274 0.0 3.2 0.00 0.05 0.03 95 1028.9
20260509202006 12 274 0.0 3.2 0.00 0.05 0.03 95 1028.8
20260509201503 12 274 0.0 3.2 0.00 0.05 0.03 95 1028.7
20260509201002 12 274 0.0 3.2 0.00 0.05 0.03 95 1028.7
20260509200503 12 273 0.0 4.8 0.00 0.05 0.03 95 1028.6
20260509200005 12 273 1.6 4.8 0.00 0.05 0.03 95 1028.6
20260509195502 12 274 0.0 4.8 0.00 0.05 0.03 95 1028.6
20260509195005 12 273 0.0 4.8 0.00 0.05 0.03 95 1028.5
20260509194502 12 274 0.0 4.8 0.00 0.05 0.03 95 1028.5
20260509194004 12 274 0.0 6.4 0.00 0.05 0.03 95 1028.4
20260509193506 12 274 0.0 4.8 0.00 0.05 0.03 94 1028.4
20260509193007 12 274 0.0 4.8 0.00 0.05 0.03 95 1028.4